Weather History for KDPA - August, 2013

Change the Weather History Date:

Wednesday, August 7, 2013

  Actual Average Record
Temperature  
Mean Temperature 75 °F 73 °F  
Max Temperature 87 °F 83 °F 94 °F (2001)
Min Temperature 63 °F 62 °F 50 °F (2004)
Degree Days  
Heating Degree Days 0 0  
Month to date heating degree days 0 0  
Since 1 June heating degree days 73 38  
Since 1 July heating degree days 19 2  
Cooling Degree Days 10 8  
Month to date cooling degree days 38 56  
Year to date cooling degree days 473 558  
Since 1 June cooling degree days 396 512  
Growing Degree Days 28 (Base 50)    
Moisture  
Dew Point 69 °F    
Average Humidity 80    
Maximum Humidity 100    
Minimum Humidity 53    
Precipitation  
Precipitation T in 0.14 in 1.14 in (2011)
Month to date precipitation 0.16 1.18  
Year to date precipitation 25.30 22.21  
Sea Level Pressure  
Sea Level Pressure 29.84 in    
Wind  
Wind Speed 8 mph (WSW)    
Max Wind Speed 18 mph    
Max Gust Speed 24 mph    
Visibility 8 miles    
Events Rain    
T = Trace of Precipitation, MM = Missing Value Source: NWS Daily Summary

Daily Weather History Graph

Daily Weather History Graph

Search for Another Location

Airport or City:

Trip Planner

Search our weather history database for the weather conditions in past years. The results will help you decide how hot, cold, wet, or windy it might be!

Date:

Astronomy

Aug. 07, 2013 Rise Set
Actual Time 5:53 AM CDT 8:03 PM CDT
Civil Twilight 5:22 AM CDT 8:34 PM CDT
Nautical Twilight 4:44 AM CDT 9:12 PM CDT
Astronomical Twilight 4:02 AM CDT 9:53 PM CDT
Moon 6:43 AM CDT (8/7) 8:08 PM CDT (8/7)
Length of Visible Light 15h 12m
Length of Day
14h 10m
New Moon, 1% of the Moon is Illuminated
Aug 7
New Moon
Aug 14
First Quarter
Aug 20
Full
Aug 28
Last Quarter
Sep 5
New

Hourly Weather History & Observations

Time (CDT) Temp. Heat Index Dew Point Humidity Pressure Visibility Wind Dir Wind Speed Gust Speed Precip Events Conditions
12:52 AM 72.0 °F - 70.0 °F 93% 29.83 in 6.0 mi South 5.8 mph - N/A   Clear
1:52 AM 72.0 °F - 70.0 °F 93% 29.81 in 7.0 mi South 5.8 mph - N/A   Clear
2:52 AM 70.0 °F - 69.1 °F 97% 29.81 in 6.0 mi South 4.6 mph - N/A   Mostly Cloudy
3:34 AM 69.8 °F - 69.8 °F 100% 29.81 in 5.0 mi South 5.8 mph - N/A   Scattered Clouds
3:52 AM 70.0 °F - 69.1 °F 97% 29.80 in 4.0 mi SSW 5.8 mph - N/A   Clear
4:52 AM 71.1 °F - 70.0 °F 96% 29.80 in 4.0 mi SSW 6.9 mph - N/A   Scattered Clouds
5:50 AM 71.6 °F - 69.8 °F 94% 29.81 in 5.0 mi SSW 5.8 mph - N/A   Partly Cloudy
5:52 AM 71.1 °F - 70.0 °F 96% 29.80 in 4.0 mi SSW 5.8 mph - N/A   Scattered Clouds
6:03 AM 71.6 °F - 69.8 °F 94% 29.81 in 5.0 mi SSW 6.9 mph - N/A   Mostly Cloudy
6:52 AM 72.0 °F - 70.0 °F 93% 29.81 in 5.0 mi SSW 10.4 mph - N/A   Overcast
7:52 AM 72.0 °F - 71.1 °F 97% 29.82 in 4.0 mi SW 9.2 mph - N/A   Overcast
8:37 AM 75.2 °F - 71.6 °F 89% 29.83 in 7.0 mi West 9.2 mph - N/A   Scattered Clouds
8:52 AM 77.0 °F - 72.0 °F 84% 29.82 in 8.0 mi West 9.2 mph - N/A   Partly Cloudy
9:52 AM 81.0 °F 85.2 °F 72.0 °F 74% 29.80 in 10.0 mi West 6.9 mph - N/A   Clear
10:52 AM 84.0 °F 88.4 °F 70.0 °F 63% 29.82 in 10.0 mi WSW 10.4 mph - N/A   Clear
11:52 AM 84.9 °F 90.1 °F 71.1 °F 63% 29.82 in 10.0 mi West 8.1 mph - N/A   Scattered Clouds
12:52 PM 86.0 °F 92.2 °F 72.0 °F 63% 29.81 in 10.0 mi Variable 6.9 mph - N/A   Scattered Clouds
1:52 PM 87.1 °F 92.8 °F 71.1 °F 59% 29.81 in 10.0 mi WSW 12.7 mph - N/A   Partly Cloudy
2:52 PM 84.9 °F 90.7 °F 72.0 °F 65% 29.82 in 10.0 mi West 8.1 mph - 0.00 in Rain Light Rain
3:52 PM 86.0 °F 88.8 °F 66.9 °F 53% 29.82 in 10.0 mi NW 11.5 mph - N/A   Mostly Cloudy
4:52 PM 86.0 °F 88.8 °F 66.9 °F 53% 29.82 in 10.0 mi NW 10.4 mph - N/A   Clear
5:52 PM 84.9 °F 88.2 °F 68.0 °F 57% 29.83 in 10.0 mi North 17.3 mph 20.7 mph N/A   Scattered Clouds
6:52 PM 81.0 °F 82.7 °F 64.9 °F 58% 29.85 in 10.0 mi North 10.4 mph - N/A   Clear
7:52 PM 73.0 °F - 64.0 °F 73% 29.90 in 10.0 mi ENE 12.7 mph - N/A   Mostly Cloudy
8:52 PM 71.1 °F - 63.0 °F 75% 29.92 in 10.0 mi NNE 8.1 mph - N/A   Clear
9:52 PM 69.1 °F - 63.0 °F 81% 29.94 in 10.0 mi NE 8.1 mph - N/A   Clear
10:52 PM 68.0 °F - 63.0 °F 84% 29.95 in 10.0 mi NE 4.6 mph - N/A   Clear
11:52 PM 64.0 °F - 62.1 °F 93% 29.95 in 10.0 mi NNE 3.5 mph - N/A   Clear